Russell, KS

10:58 PM CST on February 24, 2017 (GMT -0600)
Russell Municipal

Weather History for KRSL - January, 2014

Change the Weather History Date:

Sunday, January 19, 2014

  Actual Average Record
Temperature  
Mean Temperature 45 °F -  
Max Temperature 69 °F 39 °F 69 °F (1986)
Min Temperature 21 °F 18 °F -10 °F (1962)
Degree Days  
Heating Degree Days 20    
Moisture  
Dew Point 17 °F    
Average Humidity 45    
Maximum Humidity 81    
Minimum Humidity 14    
Precipitation  
Precipitation 0.00 in - - ()
Sea Level Pressure  
Sea Level Pressure 29.97 in    
Wind  
Wind Speed 11 mph (WSW)    
Max Wind Speed 16 mph    
Max Gust Speed 21 mph    
Visibility 10 miles    
Events      
Averages and records for this station are not official NWS values.
T = Trace of Precipitation, MM = Missing Value Source: NWS Daily Summary

Daily Weather History Graph

Daily Weather History Graph

Search for Another Location

Airport or City:

Trip Planner

Search our weather history database for the weather conditions in past years. The results will help you decide how hot, cold, wet, or windy it might be!

Date:

Astronomy

Jan. 19, 2014 Rise Set
Actual Time 7:50 AM CST 5:41 PM CST
Civil Twilight 7:21 AM CST 6:10 PM CST
Nautical Twilight 6:48 AM CST 6:43 PM CST
Astronomical Twilight 6:17 AM CST 7:15 PM CST
Moon 9:18 PM CST (1/19) 9:23 AM CST (1/19)
Length of Visible Light 10h 49m
Length of Day
9h 51m
Waning Gibbous, 89% of the Moon is Illuminated
Jan 19
Waning Gibbous
Jan 23
Last Quarter
Jan 30
New
Feb 6
First Quarter
Feb 14
Full

Hourly Weather History & Observations

Time (CST) Temp. Windchill Dew Point Humidity Pressure Visibility Wind Dir Wind Speed Gust Speed Precip Events Conditions
12:53 AM 24.1 °F 14.4 °F 17.1 °F 75% 30.15 in 10.0 mi WSW 9.2 mph - N/A   Clear
1:53 AM 21.0 °F 10.6 °F 16.0 °F 81% 30.14 in 10.0 mi SSW 9.2 mph - N/A   Clear
2:53 AM 21.9 °F 11.0 °F 16.0 °F 78% 30.13 in 10.0 mi SSW 10.4 mph - N/A   Clear
3:53 AM 24.1 °F 11.5 °F 16.0 °F 71% 30.12 in 10.0 mi SW 15.0 mph - N/A   Clear
4:53 AM 24.1 °F 11.5 °F 15.1 °F 69% 30.08 in 10.0 mi SSW 15.0 mph - N/A   Clear
5:53 AM 25.0 °F 14.2 °F 15.1 °F 66% 30.07 in 10.0 mi SW 11.5 mph - N/A   Clear
6:53 AM 26.1 °F 15.0 °F 15.1 °F 63% 30.06 in 10.0 mi SW 12.7 mph - N/A   Clear
7:53 AM 26.1 °F 14.0 °F 15.1 °F 63% 30.05 in 10.0 mi SSW 15.0 mph - N/A   Clear
8:53 AM 30.0 °F 20.0 °F 17.1 °F 59% 30.02 in 10.0 mi SW 12.7 mph - N/A   Clear
9:53 AM 36.0 °F 26.7 °F 18.0 °F 48% 30.02 in 10.0 mi WSW 15.0 mph - N/A   Clear
10:53 AM 44.1 °F 36.8 °F 19.0 °F 37% 30.00 in 10.0 mi WSW 16.1 mph - N/A   Clear
11:53 AM 53.1 °F - 19.9 °F 27% 29.96 in 10.0 mi WSW 11.5 mph - N/A   Clear
12:53 PM 63.0 °F - 21.0 °F 20% 29.91 in 10.0 mi NW 12.7 mph - N/A   Clear
1:53 PM 66.0 °F - 19.9 °F 17% 29.87 in 10.0 mi WNW 13.8 mph - N/A   Clear
2:53 PM 68.0 °F - 19.0 °F 15% 29.85 in 10.0 mi West 11.5 mph 20.7 mph N/A   Clear
3:53 PM 69.1 °F - 18.0 °F 14% 29.86 in 10.0 mi WNW 16.1 mph - N/A   Clear
4:53 PM 66.0 °F - 18.0 °F 16% 29.86 in 10.0 mi WNW 8.1 mph - N/A   Clear
5:53 PM 54.0 °F - 17.1 °F 23% 29.88 in 10.0 mi West 10.4 mph - N/A   Clear
6:53 PM 51.1 °F - 17.1 °F 26% 29.88 in 10.0 mi WSW 8.1 mph - N/A   Clear
7:53 PM 48.9 °F - 18.0 °F 29% 29.90 in 10.0 mi West 8.1 mph - N/A   Clear
8:53 PM 42.1 °F 37.1 °F 17.1 °F 37% 29.90 in 10.0 mi WSW 8.1 mph - N/A   Clear
9:53 PM 37.9 °F 35.5 °F 17.1 °F 43% 29.90 in 10.0 mi SW 3.5 mph - N/A   Clear
10:53 PM 39.0 °F 36.8 °F 17.1 °F 41% 29.89 in 10.0 mi SW 3.5 mph - N/A   Clear
11:53 PM 35.1 °F 31.0 °F 18.0 °F 50% 29.89 in 10.0 mi NW 4.6 mph - N/A   Clear